Location: Unspecified
(47.4992°N, 121.7766°W)
Time: 05:15:02
(UTC-08:00)

CZ-3 Stage 3 - Visible Passes

Search period start: 16 January 2018 00:00
Search period end: 26 January 2018 00:00
Orbit: 425 x 34772 km, 31.0° (Epoch: 15 January)

Date Brightness Start Highest point End Pass type
(mag) Time Alt. Az. Time Alt. Az. Time Alt. Az.
18 Jan 5.2 18:00:47 10° SSW 18:06:25 13° S 18:09:37 10° SSE visible
21 Jan 5.2 17:50:34 10° SW 17:57:05 14° S 18:00:32 10° SSE visible
22 Jan 7.0 13:33:49 10° S 14:06:51 14° S 14:18:42 10° SE visible
24 Jan 5.2 17:40:21 10° SW 17:47:44 15° S 17:51:23 10° SSE visible
25 Jan 7.0 13:17:17 10° S 13:57:47 15° S 14:10:23 10° SE visible
